Location: Ashleigh
(39.0171°N, 77.1605°W)
Time: 19:57:46
(UTC+00:00)

Daily predictions for brighter satellites

Satellite Brightness Start Highest point End
(mag) Time Altitude Azimuth Time Altitude Azimuth Time Altitude Azimuth
PAYLOAD B 4.3 22:06:32 10° SSE 22:12:05 72° ENE 22:17:40 10° N
Cosmos 2154 Rocket 4.3 22:08:10 10° N 22:14:17 49° ENE 22:20:24 10° SSE
H-2A R/B 2.0 22:14:36 10° NNE 22:18:47 85° ESE 22:23:02 10° SSW
Cosmos 1862 3.5 22:15:44 10° N 22:19:40 48° E 22:23:33 10° SSE
Landsat 5 4.0 22:15:48 10° N 22:20:10 70° WNW 22:24:37 10° SSW
CZ-4B DEB 4.4 22:14:50 10° S 22:20:20 80° WSW 22:25:50 10° NNW
ATLAS 5 CENTAUR R/B 3.3 22:16:04 10° NW 22:21:57 59° WSW 22:28:40 10° SSE
Abrixas rocket 3.1 22:20:01 10° NW 22:22:21 24° NNE 22:24:41 10° E
Cosmos 1867 4.5 22:19:46 10° S 22:24:25 30° ESE 22:29:07 10° NE
Cosmos 2333 Rocket 3.6 22:19:28 10° SW 22:24:44 38° WNW 22:30:01 10° N
USA 281 4.2 22:21:38 10° E 22:26:34 23° NE 22:31:30 10° N
NOSS 0 Rocket 4.0 22:21:19 10° SSW 22:27:33 88° ESE 22:33:50 10° NNE
NOAA 6 4.3 22:22:31 10° S 22:27:40 75° WSW 22:32:50 10° NNW
Cosmos 372 Rocket 4.1 22:23:24 10° NNW 22:28:34 81° WSW 22:33:44 10° SSE
COSMOS 2428 3.8 22:24:32 10° SW 22:29:59 45° WNW 22:35:29 10° N
Cosmos 1689 Rocket 4.1 22:29:44 11° E 22:30:19 11° E 22:31:15 10° ESE
Cosmos 2298 Rocket 4.0 22:28:38 10° NNW 22:33:56 68° ENE 22:39:12 10° SSE
ISS -3.0 22:31:32 10° WSW 22:34:48 47° NNW 22:37:58 11° NE
Cosmos 1818 3.9 22:29:49 10° NNW 22:35:03 45° NE 22:40:15 10° SE
Cosmos 2150 Rocket 3.9 22:30:32 10° NNW 22:35:40 64° ENE 22:40:45 10° SSE
Cosmos 1939 Rocket 3.8 22:35:54 10° SE 22:39:05 25° ENE 22:42:18 10° NNE
ERS-2 2.4 22:36:33 10° NNE 22:40:05 45° E 22:43:36 10° S
Cosmos 2221 4.0 22:36:40 10° SSW 22:40:46 40° WNW 22:44:52 10° N
Cosmos 2327 Rocket 4.5 22:35:25 10° N 22:41:35 83° E 22:47:49 10° S
Cosmos 2278 Rocket 2.2 22:36:42 10° NNW 22:42:23 70° ENE 22:48:01 10° SSE
CZ-4B R/B 1.2 22:40:48 10° NNE 22:43:49 56° E 22:46:52 10° S
Cosmos 1500 Rocket 4.1 22:43:00 10° NNW 22:47:21 64° W 22:51:43 10° S
BREEZE-M DEB (TANK) 4.2 22:44:57 10° S 22:48:01 16° SSE 22:49:52 11° ESE
SL-8 Rocket 4.5 22:43:23 10° N 22:49:04 36° ENE 22:54:46 10° SE
TELKOM 3 3.9 22:46:31 10° WSW 22:49:15 44° NNW 22:50:44 19° NNE
Cosmos 2181 Rocket 4.4 22:43:33 10° SSE 22:49:31 41° E 22:55:27 10° NNE
Cosmos 1125 Rocket 3.4 22:47:36 10° NNW 22:52:46 63° ENE 22:57:55 10° SSE
YAOGAN 1 4.0 22:55:22 18° NE 22:55:22 18° NE 22:57:38 10° NNE
Cosmos 2219 Rocket 4.3 22:54:45 10° WSW 22:59:10 23° NW 23:03:35 10° N
CZ-4B R/B 3.8 22:55:27 10° S 23:00:45 60° WSW 23:06:01 10° NNW
USA 215 3.6 22:54:20 10° NE 23:00:48 65° NW 23:07:14 10° WSW
Okean-O 3.5 22:57:51 10° SE 23:01:30 26° ENE 23:05:10 10° NNE
Meteor 2-12 Rocket 4.4 22:58:38 10° N 23:04:47 73° E 23:10:54 10° SSE
FengYun 1-2 T 4.3 22:59:50 10° SSE 23:05:25 85° WSW 23:10:58 10° NNW
Cosmos 2237 Rocket 2.8 23:01:32 10° SW 23:07:02 58° WNW 23:12:36 10° NNE
SL-24 R/B - RUBIN 2 4.2 23:01:17 10° NNW 23:07:31 76° ENE 23:12:58 10° SE
COSMO-SKYMED 1 2.5 23:03:59 10° NNE 23:08:19 66° E 23:12:37 10° S
NOAA 11 4.2 23:02:59 10° SSE 23:08:24 85° WSW 23:13:51 10° NNW
Okean O Rocket 2.9 23:10:01 10° S 23:14:06 42° W 23:18:15 10° NNW
Cosmos 1933 3.2 23:11:27 10° S 23:15:25 67° E 23:19:06 12° NNE
SL-24 R/B 3.7 23:13:00 11° NNE 23:16:55 65° E 23:20:36 10° S
USA 81 4.0 23:15:18 10° N 23:20:32 60° E 23:25:44 10° SSE
Sich 1 3.2 23:16:14 10° N 23:20:38 75° W 23:24:56 10° S
PSLV R/B 3.8 23:20:05 20° NNE 23:22:49 66° ESE 23:26:50 10° S
Cosmos 2369 Rocket 4.1 23:20:47 10° NNE 23:22:06 13° NNE 23:22:06 13° NNE
H-2A R/B 2.7 23:25:30 32° ENE 23:25:30 32° ENE 23:29:59 10° N
Helios 1A Rocket 3.0 23:24:55 10° SSE 23:28:48 48° ENE 23:32:41 10° N
SL-23 DEB 4.3 23:25:46 10° SSW 23:29:18 54° SE 23:30:31 41° E
USA 267 3.4 23:27:58 28° E 23:31:20 53° NE 23:37:37 10° NW
Cosmos 389 Rocket 4.1 23:29:57 10° SW 23:33:06 33° WNW 23:36:14 10° N
Cosmos 2218 Rocket 3.8 23:27:13 10° N 23:33:22 69° E 23:39:28 10° SSE
Cosmos 1151 Rocket 2.9 23:30:08 10° S 23:34:26 88° E 23:37:28 19° N
Cosmos 773 Rocket 4.0 23:30:05 10° S 23:35:13 60° ESE 23:37:15 35° NE
Cosmos 1666 Rocket 3.6 23:31:23 10° N 23:35:47 83° W 23:40:12 10° S
Cosmos 1782 3.4 23:32:24 10° S 23:35:12 39° SE 23:35:12 39° SE
Cosmos 1328 Rocket 3.3 23:33:43 10° S 23:38:00 84° E 23:40:18 27° N
Cosmos 783 Rocket 4.5 23:34:37 10° SSW 23:39:56 85° WNW 23:43:31 21° NNE
Meteor 1-14 Rocket 4.5 23:39:32 10° N 23:45:16 48° ENE 23:46:47 40° ESE
Cosmos 2366 rocket 3.8 23:39:17 10° N 23:45:31 82° E 23:51:40 10° S
SL-24 DEB 4.2 23:41:32 10° N 23:46:19 88° E 23:51:02 10° S
BREEZE-M DEB (TANK) 3.4 23:37:09 10° SW 23:47:43 70° SE 23:48:27 58° E
Cosmos 2297 3.6 23:43:00 10° NNW 23:48:40 64° ENE 23:50:36 41° SE
Meteor 1-26 Rocket 4.4 23:47:48 10° S 23:53:47 83° W 23:59:51 10° N
SL-16 R/B 2.4 23:48:40 10° SSW 23:54:17 67° WNW 23:57:38 25° NNE
